CAPE
0 0 0 0 0 0 0 0 0 0 0 0 4 8 8 0 0 0 0 0 0 0
0 0 0 0 0 0 0 0 0 0 0 0 0 1 2 0 0 0 0 0 0 0
0 0 0 0 0 0 0 0 0 0 0 0 0 0 0 0 0 0 0 0 0 0
0 0 0 0 0 12 0 0 0 0 0 0 0 0 0 0 0 0 0 0 0 0
0 0 1 7 24 10 6 0 0 0 0 0 0 0 0 0 0 0 0 0 0 0
0 0 0 4 1 0 0 0 0 0 0 0 0 0 0 0 0 0 0 0 0 0
0 0 0 0 0 0 0 0 0 0 0 0 0 0 0 0 0 0 0 0 0 0
0 0 0 0 0 0 0 0 0 0 0 0 0 0 0 0 0 0 0 0 0 0
0 0 0 0 0 0 0 0 0 0 0 0 0 0 0 0 0 0 0 0 0 0
0 0 0 0 0 0 0 0 0 0 0 0 0 0 0 0 0 0 0 0 0 0
0 0 0 0 0 0 0 0 0 0 0 0 0 0 0 0 0 0 0 0 0 0
0 0 0 0 0 0 0 0 0 0 0 0 0 0 0 0 0 0 0 0 0 0
0 0 0 0 0 0 0 0 0 0 0 0 0 0 0 0 0 0 0 0 0 0
0 0 0 0 0 0 0 0 0 0 0 0 0 0 0 0 0 0 0 0 0 0
CIN
-0 -0 -0 -0 -0 -0 -0 -0 -0 -0 -0 -0 -136 -138 -138 -31 -0 -0 -0 -0 -0 -0
-0 -0 -0 -0 -0 -0 -0 -0 -0 -0 -0 -0 -0 -128 -153 -0 -0 -0 -0 -0 -0 -0
-0 -0 -0 -0 -0 -0 -0 -0 -0 -0 -0 -0 -0 -0 -0 -0 -0 -0 -0 -0 -0 -0
-0 -0 -0 -0 -0 -167 -44 -0 -0 -0 -0 -0 -0 -0 -0 -0 -0 -0 -0 -0 -0 -0
-0 -0 -7 -155 -144 -185 -115 -0 -3 -0 -0 -0 -0 -0 -0 -0 -0 -0 -0 -0 -0 -0
-0 -0 -0 -26 -43 -0 -0 -0 -0 -0 -0 -0 -0 -0 -0 -0 -0 -0 -0 -0 -0 -0
-0 -0 -0 -0 -1 -0 -0 -0 -0 -0 -0 -0 -0 -0 -0 -0 -0 -0 -0 -0 -0 -0
-0 -0 -0 -0 -0 -0 -0 -0 -0 -0 -0 -0 -0 -0 -0 -0 -0 -0 -0 -0 -0 -0
-0 -0 -0 -0 -0 -0 -0 -0 -0 -0 -0 -0 -0 -0 -0 -0 -0 -0 -0 -0 -0 -0
-0 -0 -0 -0 -0 -0 -0 -0 -0 -0 -0 -0 -0 -0 -0 -0 -0 -0 -0 -0 -0 -0
-0 -0 -0 -0 -0 -0 -0 -0 -0 -0 -0 -0 -0 -0 -0 -0 -0 -0 -0 -0 -0 -0
-0 -0 -0 -0 -0 -0 -0 -0 -0 -0 -0 -0 -0 -0 -0 -0 -0 -0 -0 -0 -0 -0
-0 -0 -0 -0 -0 -0 -0 -0 -0 -0 -0 -0 -0 -0 -0 -0 -0 -0 -0 -0 -0 -0
-0 -0 -0 -0 -0 -0 -0 -0 -0 -0 -0 -0 -0 -0 -0 -0 -0 -0 -0 -0 -0 -0
Wind_Speed
18 19 21 21 21 21 22 21 21 21 21 21 21 20 20 19 19 19 19 19 19 20
20 21 22 23 23 23 23 22 21 21 22 23 23 22 20 20 20 19 20 20 19 20
23 23 24 25 25 25 25 23 22 22 23 24 24 23 22 22 20 21 21 20 19 19
26 26 25 26 26 27 27 25 24 24 24 24 24 23 23 23 24 22 21 20 19 19
27 28 27 27 28 29 28 26 26 26 26 25 25 24 25 25 24 23 23 21 20 19
29 31 30 29 30 29 28 27 27 27 28 28 27 26 25 25 25 24 24 22 22 19
26 27 27 27 28 28 28 27 28 28 28 27 27 27 26 25 24 25 23 23 22 21
24 22 22 24 25 26 28 28 27 27 26 25 26 24 25 24 24 23 23 22 20 21
23 22 22 22 22 23 23 24 25 25 25 25 25 24 23 21 23 21 21 20 20 19
22 21 21 23 24 26 26 26 27 26 26 26 26 23 21 19 19 21 19 18 19 17
24 26 26 26 26 27 28 29 29 27 26 25 24 21 19 18 19 18 17 17 15 17
23 24 25 26 26 27 26 26 25 24 24 23 21 17 16 16 16 17 16 15 16 16
20 20 21 22 23 23 23 24 23 24 21 20 20 16 14 14 14 14 16 14 20 18
22 23 22 22 22 23 23 22 22 21 20 19 16 14 13 12 13 15 14 15 16 17
Wind_Direction
252 260 265 271 275 277 279 281 284 280 279 279 281 282 286 287 292 299 300 303 304 303
256 260 269 271 273 275 277 281 280 280 279 280 280 280 279 283 284 291 298 302 306 303
265 263 265 274 271 273 276 277 277 277 280 282 280 278 276 279 282 286 292 298 302 305
274 273 271 269 273 274 278 277 277 278 279 280 280 279 275 277 278 280 287 291 297 301
279 279 277 275 278 281 279 279 278 280 281 280 282 281 279 277 275 268 281 280 295 293
289 287 285 284 286 285 284 283 284 284 284 283 283 284 281 277 276 278 279 282 289 285
298 295 293 292 290 292 290 288 288 288 286 286 286 287 285 280 278 279 279 276 282 282
309 310 307 302 299 298 296 295 294 292 291 289 289 287 285 283 279 278 278 280 279 285
309 311 311 311 311 307 304 301 299 296 294 292 291 290 285 281 281 277 279 275 279 281
309 309 309 309 309 307 305 305 304 303 301 299 297 294 290 284 282 278 277 275 284 276
309 306 307 307 306 307 307 306 306 305 305 304 303 299 295 291 293 285 277 278 271 276
312 309 310 310 311 313 313 314 313 316 313 312 311 305 298 294 295 287 287 283 277 278
329 325 322 321 321 321 321 320 319 321 320 318 316 311 305 300 294 286 285 285 289 286
333 330 329 328 327 325 325 325 325 325 325 323 321 314 305 296 295 291 286 286 287 289